Flag Weather past 2 weeks in Binghamton, New York, U.S.A.

Now
26 °F

Light snow. Ice fog.


Feels Like: 19 °F
Forecast: 25 / 34 °F
Wind: 6 mph from Northwest

Location: Binghamton Regional Airport

Current Time: Nov 27, 2014 at 5:24:36 PM

Latest Report: Nov 27, 2014 at 4:53 PM


Visibility: 3 mi

Pressure: 30.03 "Hg

Humidity: 92%

Dew point: 24 °F

Location of BinghamtonLocation

Historic Weather in Binghamton — Graph

°F

Binghamton temperature yesterday

Maximum temperature yesterday: 44 °F (at 5:02 PM)
Minimum temperature yesterday: 30 °F (at 10:53 AM)
Average temperature yesterday: 34 °F

Past Weeks' High & Low Weather Summary

 TemperatureHumidityPressure
High66 °F (Nov 24, 12:53 PM)100% (Nov 17, 6:53 AM)30.45 "Hg (Nov 17, 6:53 AM)
Low11 °F (Nov 19, 4:53 AM)26% (Nov 22, 1:53 PM)29.42 "Hg (Nov 24, 1:53 PM)
Average32 °F67%30.01 "Hg
* Reported Nov 12 3:53 PM — Nov 27 3:53 PM, Binghamton, Weather by CustomWeather, © 2014

Note: Actual official high and low records may vary slightly from our data, if they occured in-between our weather recording intervals... More about our weather records

Advertising

Binghamton weather history for previous 24 hours

 ConditionsComfort  
Time TempWeatherWind HumidityBarometerVisibility
3:53 PM
Nov 27
27 °FLight snow. Low clouds.7 mph85%30.02 "Hg8 mi
2:53 PM27 °FMostly cloudy.8 mph85%30.01 "Hg10 mi
1:53 PM28 °FOvercast.8 mph85%29.99 "Hg10 mi
1:00 PM27 °FLight snow. Mostly cloudy.7 mph89%29.94 "Hg7 mi
11:53 AM28 °FLight snow. Ice fog.6 mph85%29.99 "Hg3 mi
10:53 AM27 °FLight snow. Ice fog.6 mph89%30.00 "Hg2 mi
10:03 AM39 °FLight snow. Low clouds.5 mph55%29.96 "Hg1 mi
9:53 AM38 °FLight snow. Low clouds.6 mph58%29.99 "Hg2 mi
8:53 AM34 °FLight snow. Low clouds.5 mph70%29.99 "Hg2 mi
8:00 AM33 °FLight snow. Mostly cloudy.No wind70%29.94 "Hg4 mi
6:53 AM32 °FLight snow. Mostly cloudy.3 mph73%29.96 "Hg3 mi
5:53 AM34 °FLight snow. Overcast.5 mph67%29.95 "Hg4 mi
5:04 AM36 °FLight snow. Low clouds.6 mph62%29.90 "Hg3 mi
4:53 AM35 °FLight snow. Mostly cloudy.7 mph64%29.93 "Hg2 mi
3:53 AM36 °FLow clouds.6 mph62%29.94 "Hg6 mi
2:53 AM36 °FMostly cloudy.7 mph62%29.95 "Hg5 mi
1:53 AM36 °FLight snow. Low clouds.8 mph64%29.94 "Hg4 mi
12:53 AM36 °FMostly cloudy.7 mph64%29.93 "Hg8 mi
11:53 PM
Nov 26
38 °FLight snow. Overcast.7 mph60%29.94 "Hg6 mi
10:53 PM39 °FLight snow. Mostly cloudy.9 mph60%29.92 "Hg7 mi
9:53 PM41 °FLight snow. Mostly cloudy.8 mph58%29.93 "Hg1 mi
9:02 PM41 °FLight snow. Mostly cloudy.10 mph55%29.90 "Hg2 mi
8:53 PM43 °FMostly cloudy.10 mph53%29.94 "Hg2 mi
7:55 PM39 °FMostly cloudy.10 mph62%29.92 "Hg2 mi
6:53 PM43 °FMostly cloudy.9 mph53%29.98 "Hg1 mi
5:53 PM41 °FMostly cloudy.14 mph58%29.97 "Hg1 mi
5:02 PM44 °FDense fog.12 mph53%29.95 "Hg1 mi
Weather by CustomWeather, © 2014

See weather overviewHow to use our weather pages